GW6917 Weather Reports


Display with metric or nautical units.
time (UTC)temp
F
wind
direction
speed
MPH
gust
MPH
rain 1hr
in
rain 24hr
in
rain mn
in
humidity
%
barometer
mb
20260507212534 50 223 2.0 6.0 0.00 0.00 0.00 78 1014.5
20260507212038 50 189 3.0 6.0 0.00 0.00 0.00 78 1014.4
20260507211550 50 191 4.0 6.0 0.00 0.00 0.00 78 1014.3
20260507211033 50 192 4.0 8.0 0.00 0.00 0.00 78 1014.5
20260507210534 50 178 4.0 8.0 0.00 0.00 0.00 78 1014.5
20260507210048 50 187 4.0 8.0 0.00 0.00 0.00 77 1014.5
20260507205535 50 206 3.0 7.0 0.00 0.00 0.00 77 1014.5
20260507205033 50 191 3.0 7.0 0.00 0.00 0.00 77 1014.4
20260507204550 50 201 3.0 7.0 0.00 0.00 0.00 77 1014.4
20260507204034 50 220 3.0 7.0 0.00 0.00 0.00 77 1014.3
20260507203535 50 163 3.0 7.0 0.00 0.00 0.00 76 1014.3
20260507203052 50 164 2.0 9.0 0.00 0.00 0.00 76 1014.3
20260507202536 50 198 4.0 9.0 0.00 0.00 0.00 76 1014.2
20260507202034 50 207 5.0 8.0 0.00 0.00 0.00 76 1014.2
20260507201547 50 174 3.0 9.0 0.00 0.00 0.00 76 1014.1
20260507201034 51 210 3.0 9.0 0.00 0.00 0.00 75 1014.1
20260507200535 51 187 3.0 9.0 0.00 0.00 0.00 75 1014.1
20260507200047 51 142 3.0 8.0 0.00 0.00 0.00 75 1014.1
20260507195534 51 199 3.0 6.0 0.00 0.00 0.00 75 1014.1
20260507195034 51 165 2.0 6.0 0.00 0.00 0.00 74 1014.1
20260507194544 51 210 3.0 5.0 0.00 0.00 0.00 74 1014.1
20260507194034 51 207 1.0 7.0 0.00 0.00 0.00 74 1014.1
20260507193534 51 178 2.0 8.0 0.00 0.00 0.00 74 1014.0
20260507193054 51 195 4.0 8.0 0.00 0.00 0.00 74 1014.0
20260507192534 52 196 1.0 4.0 0.00 0.00 0.00 73 1014.0
20260507192034 52 117 0.0 7.0 0.00 0.00 0.00 73 1014.0
20260507191547 52 186 3.0 7.0 0.00 0.00 0.00 73 1013.9
20260507191036 52 186 3.0 7.0 0.00 0.00 0.00 73 1013.9
20260507190534 52 161 3.0 6.0 0.00 0.00 0.00 73 1013.9
20260507190049 52 193 2.0 6.0 0.00 0.00 0.00 73 1014.0
20260507185534 52 213 2.0 5.0 0.00 0.00 0.00 72 1013.9
20260507185034 52 152 2.0 6.0 0.00 0.00 0.00 72 1014.0
20260507184549 52 178 2.0 7.0 0.00 0.00 0.00 72 1013.9
20260507184037 53 206 2.0 8.0 0.00 0.00 0.00 72 1013.9
20260507183534 53 186 4.0 10.0 0.00 0.00 0.00 71 1013.9
20260507183045 53 213 5.0 10.0 0.00 0.00 0.00 71 1014.0
20260507182535 53 152 5.0 9.0 0.00 0.00 0.00 71 1014.0
20260507182107 53 191 5.0 12.0 0.00 0.00 0.00 71 1013.8
20260507181543 53 198 6.0 12.0 0.00 0.00 0.00 70 1013.8
20260507181034 53 178 5.0 14.0 0.00 0.00 0.00 70 1013.9
20260507180534 54 204 6.0 14.0 0.00 0.00 0.00 70 1013.9
20260507180050 54 178 7.0 15.0 0.00 0.00 0.00 69 1013.8
20260507175533 54 195 7.0 15.0 0.00 0.00 0.00 69 1013.8
20260507175034 54 209 7.0 14.0 0.00 0.00 0.00 69 1013.9
20260507174617 54 207 7.0 14.0 0.00 0.00 0.00 70 1013.8
20260507174034 55 181 6.0 14.0 0.00 0.00 0.00 69 1013.9
20260507173534 55 193 7.0 14.0 0.00 0.00 0.00 69 1013.7
20260507173048 55 196 5.0 14.0 0.00 0.00 0.00 69 1013.9
20260507172534 55 190 8.0 14.0 0.00 0.00 0.00 68 1013.9
20260507172034 55 185 6.0 12.0 0.00 0.00 0.00 68 1013.8
20260507171605 56 199 7.0 14.0 0.00 0.00 0.00 67 1013.9
20260507171034 56 194 6.0 14.0 0.00 0.00 0.00 67 1013.8
20260507170535 56 187 7.0 13.0 0.00 0.00 0.00 68 1013.8
20260507170057 56 165 6.0 12.0 0.00 0.00 0.00 68 1013.9
20260507165537 56 212 5.0 12.0 0.00 0.00 0.00 69 1013.9
20260507165031 56 193 7.0 14.0 0.00 0.00 0.00 69 1013.9
20260507164552 56 187 6.0 14.0 0.00 0.00 0.00 68 1013.9
20260507164031 56 162 7.0 12.0 0.00 0.00 0.00 69 1013.9
20260507163537 56 201 5.0 10.0 0.00 0.00 0.00 70 1013.9
20260507163048 55 199 5.0 11.0 0.00 0.00 0.00 69 1013.9
20260507162534 55 201 7.0 13.0 0.00 0.00 0.00 68 1013.9
20260507162031 55 171 7.0 13.0 0.00 0.00 0.00 68 1014.0
20260507161552 56 202 7.0 14.0 0.00 0.00 0.00 68 1013.9
20260507161033 56 206 8.0 14.0 0.00 0.00 0.00 68 1013.9
20260507160535 56 198 9.0 14.0 0.00 0.00 0.00 68 1014.0
20260507160110 56 213 6.0 14.0 0.00 0.00 0.00 68 1014.0
20260507155531 56 200 6.0 14.0 0.00 0.00 0.00 68 1014.0
20260507155032 55 165 6.0 11.0 0.00 0.00 0.00 69 1014.0
20260507154551 55 204 6.0 11.0 0.00 0.00 0.00 69 1014.0
20260507154032 55 222 5.0 11.0 0.00 0.00 0.00 69 1014.1
20260507153534 55 202 3.0 12.0 0.00 0.00 0.00 70 1014.1
20260507153044 55 202 4.0 12.0 0.00 0.00 0.00 70 1014.2
20260507152533 55 148 4.0 10.0 0.00 0.00 0.00 70 1014.1
20260507152036 55 192 3.0 10.0 0.00 0.00 0.00 70 1014.1
20260507151555 55 200 4.0 11.0 0.00 0.00 0.00 70 1014.2
20260507151035 55 189 6.0 11.0 0.00 0.00 0.00 70 1014.2
20260507150536 55 190 4.0 11.0 0.00 0.00 0.00 70 1014.2
20260507150051 54 202 5.0 11.0 0.00 0.00 0.00 69 1014.3
20260507145539 54 172 5.0 11.0 0.00 0.00 0.00 70 1014.5
20260507145032 54 223 5.0 11.0 0.00 0.00 0.00 69 1014.3
20260507144551 54 199 6.0 11.0 0.00 0.00 0.00 70 1014.4
20260507144036 54 254 4.0 12.0 0.00 0.00 0.00 69 1014.4
20260507143536 54 178 7.0 13.0 0.00 0.00 0.00 70 1014.5
20260507143052 54 234 6.0 13.0 0.00 0.00 0.00 70 1014.5
20260507142536 54 198 5.0 13.0 0.00 0.00 0.00 71 1014.6
20260507142036 54 205 5.0 13.0 0.00 0.00 0.00 71 1014.5
20260507141547 54 189 7.0 13.0 0.00 0.00 0.00 71 1014.6
20260507141036 54 193 7.0 12.0 0.00 0.00 0.00 71 1014.6
20260507140536 54 185 6.0 12.0 0.00 0.00 0.00 71 1014.7
20260507140053 54 181 7.0 12.0 0.00 0.00 0.00 70 1014.7
20260507135538 54 190 6.0 11.0 0.00 0.00 0.00 70 1014.6
20260507135037 54 189 6.0 12.0 0.00 0.00 0.00 70 1014.7
20260507134544 54 193 6.0 12.0 0.00 0.00 0.00 69 1014.5
20260507134035 55 219 6.0 11.0 0.00 0.00 0.00 69 1014.7
20260507133536 55 189 7.0 13.0 0.00 0.00 0.00 68 1014.7
20260507133057 55 217 6.0 14.0 0.00 0.00 0.00 67 1014.7
20260507132535 55 195 4.0 14.0 0.00 0.00 0.00 67 1014.7
20260507132035 55 198 7.0 14.0 0.00 0.00 0.00 67 1014.7
20260507131613 55 161 4.0 13.0 0.00 0.00 0.00 65 1014.8
20260507131038 55 200 2.0 7.0 0.00 0.00 0.00 67 1014.7
20260507130535 55 0 1.0 7.0 0.00 0.00 0.00 67 1014.6
20260507130047 55 287 2.0 5.0 0.00 0.00 0.00 68 1014.6
20260507125537 55 1 1.0 6.0 0.00 0.00 0.00 67 1014.7
20260507125035 55 18 2.0 6.0 0.00 0.00 0.00 68 1014.7
20260507124553 54 346 3.0 6.0 0.00 0.00 0.00 69 1014.7
20260507124036 54 13 3.0 6.0 0.00 0.00 0.00 68 1014.7
20260507123536 55 336 2.0 6.0 0.00 0.00 0.00 67 1014.7
20260507123047 55 1 3.0 7.0 0.00 0.00 0.00 67 1014.7
20260507122536 55 336 3.0 7.0 0.00 0.00 0.00 67 1014.5
20260507122040 55 335 4.0 7.0 0.00 0.00 0.00 66 1014.7
20260507121552 55 1 2.0 5.0 0.00 0.00 0.00 66 1014.7
20260507121036 55 1 3.0 5.0 0.00 0.00 0.00 68 1014.7
20260507120533 55 331 1.0 5.0 0.00 0.00 0.00 70 1014.6
20260507120045 54 314 1.0 5.0 0.00 0.00 0.00 65 1014.8
20260507115534 55 269 1.0 9.0 0.00 0.00 0.00 63 1014.9
20260507115033 56 223 1.0 9.0 0.00 0.00 0.00 62 1014.8
20260507114548 57 269 3.0 9.0 0.00 0.00 0.00 64 1014.7
20260507114037 57 190 2.0 7.0 0.00 0.00 0.00 63 1014.7
20260507113535 57 178 2.0 7.0 0.00 0.00 0.00 64 1014.6
20260507113109 57 130 2.0 5.0 0.00 0.00 0.00 66 1014.7
20260507112533 56 0 2.0 5.0 0.00 0.00 0.00 63 1014.8
20260507112034 56 259 1.0 8.0 0.00 0.00 0.00 65 1014.9
20260507111547 57 241 2.0 8.0 0.00 0.00 0.00 66 1014.7
20260507111030 57 178 2.0 8.0 0.00 0.00 0.00 69 1014.7
20260507110533 56 193 3.0 8.0 0.00 0.00 0.00 70 1014.8
20260507110047 55 157 2.0 7.0 0.00 0.00 0.00 70 1014.9
20260507105534 55 214 3.0 8.0 0.00 0.00 0.00 69 1014.9
20260507105034 55 122 2.0 8.0 0.00 0.00 0.00 70 1014.9
20260507104554 55 167 3.0 11.0 0.00 0.00 0.00 70 1014.9
20260507104033 55 178 3.0 11.0 0.00 0.00 0.00 71 1015.0
20260507103533 54 170 5.0 11.0 0.00 0.00 0.00 70 1015.0
20260507103042 54 191 5.0 11.0 0.00 0.00 0.00 71 1015.0
20260507102535 54 206 3.0 9.0 0.00 0.00 0.00 71 1015.0
20260507102034 54 210 2.0 11.0 0.00 0.00 0.00 71 1015.0
20260507101542 53 156 2.0 11.0 0.00 0.00 0.00 72 1015.0
20260507101033 53 220 4.0 9.0 0.00 0.00 0.00 72 1014.9
20260507100533 53 178 2.0 13.0 0.00 0.00 0.00 72 1014.9
20260507100057 53 175 4.0 13.0 0.00 0.00 0.00 72 1014.9
20260507095536 52 187 4.0 13.0 0.00 0.00 0.00 72 1014.7
20260507095037 52 0 4.0 10.0 0.00 0.00 0.00 73 1014.8
20260507094547 52 198 3.0 9.0 0.00 0.00 0.00 73 1014.7
20260507094036 52 202 4.0 9.0 0.00 0.00 0.00 73 1014.7
20260507093533 52 191 3.0 9.0 0.00 0.00 0.00 72 1014.7
20260507093045 52 156 2.0 8.0 0.00 0.00 0.00 71 1014.6
20260507092533 52 182 2.0 12.0 0.00 0.00 0.00 72 1014.7
20260507092037 52 174 3.0 12.0 0.00 0.00 0.00 73 1014.7
20260507091552 52 141 3.0 8.0 0.00 0.00 0.00 72 1014.7
20260507091036 52 135 3.0 11.0 0.00 0.00 0.00 72 1014.8
20260507090533 52 184 2.0 12.0 0.00 0.00 0.00 72 1014.9
20260507090042 52 185 3.0 12.0 0.00 0.00 0.00 71 1014.9
20260507085533 52 174 5.0 11.0 0.00 0.00 0.00 71 1014.9
20260507085036 52 195 4.0 11.0 0.00 0.00 0.00 71 1015.0
20260507084557 52 195 3.0 10.0 0.00 0.00 0.00 72 1014.9
20260507084034 52 150 3.0 10.0 0.00 0.00 0.00 70 1014.8
20260507083533 52 174 3.0 15.0 0.00 0.00 0.00 70 1014.9
20260507083049 52 207 4.0 15.0 0.00 0.00 0.00 70 1014.8
20260507082534 52 182 3.0 16.0 0.00 0.00 0.00 69 1014.8
20260507082034 52 135 5.0 16.0 0.00 0.00 0.00 70 1014.7
20260507081547 52 135 4.0 12.0 0.00 0.00 0.00 70 1014.8
20260507081034 52 269 4.0 14.0 0.00 0.00 0.00 70 1014.8
20260507080533 52 189 4.0 14.0 0.00 0.00 0.00 72 1014.7
20260507080054 51 135 5.0 14.0 0.00 0.00 0.00 72 1014.7
20260507075538 51 168 4.0 11.0 0.00 0.00 0.00 73 1014.8
20260507075034 50 195 4.0 10.0 0.00 0.00 0.00 72 1014.8
20260507074554 50 274 3.0 12.0 0.00 0.00 0.00 72 1014.9
20260507074033 50 186 4.0 12.0 0.00 0.00 0.00 73 1014.9
20260507073534 49 197 4.0 11.0 0.00 0.00 0.00 74 1014.9
20260507073047 49 192 4.0 11.0 0.00 0.00 0.00 74 1014.9
20260507072534 48 197 4.0 11.0 0.00 0.00 0.00 74 1015.0
20260507072035 48 157 3.0 9.0 0.00 0.00 0.00 76 1015.0
20260507071549 47 201 3.0 9.0 0.00 0.00 0.00 76 1015.0
20260507071034 47 152 3.0 9.0 0.00 0.00 0.00 77 1015.0
20260507070534 46 360 2.0 9.0 0.00 0.00 0.00 77 1015.0
20260507065536 45 28 2.0 6.0 0.00 0.00 0.00 79 1015.1
20260507065036 44 190 2.0 8.0 0.00 0.00 0.00 79 1015.0
20260507064548 44 187 2.0 8.0 0.00 0.00 0.00 79 1015.1
20260507064034 44 135 2.0 7.0 0.00 0.00 0.00 80 1015.1
20260507063534 43 171 2.0 6.0 0.00 0.00 0.00 81 1015.1
20260507063052 43 206 2.0 6.0 0.00 0.00 0.00 82 1015.0
20260507062535 42 238 1.0 6.0 0.00 0.00 0.00 82 1015.1
20260507062034 42 178 1.0 6.0 0.00 0.00 0.00 82 1015.1
20260507061542 41 197 1.0 4.0 0.00 0.00 0.00 82 1015.2
20260507061033 41 46 1.0 4.0 0.00 0.00 0.00 82 1015.2
20260507060533 41 124 1.0 4.0 0.00 0.00 0.00 82 1015.1
20260507060053 41 0 1.0 4.0 0.00 0.00 0.00 81 1015.1
20260507055534 41 56 1.0 4.0 0.00 0.00 0.00 81 1015.1
20260507055033 41 165 0.0 4.0 0.00 0.00 0.00 80 1015.2
20260507054548 41 213 0.0 3.0 0.00 0.00 0.00 80 1015.2
20260507054033 41 178 0.0 3.0 0.00 0.00 0.00 79 1015.0
20260507053533 41 145 0.0 3.0 0.00 0.00 0.00 79 1015.1
20260507053047 41 0 1.0 3.0 0.00 0.00 0.00 79 1015.1
20260507052533 41 206 1.0 5.0 0.00 0.00 0.00 79 1015.0
20260507052034 41 195 1.0 5.0 0.00 0.00 0.00 79 1015.0
20260507051559 41 178 1.0 3.0 0.00 0.00 0.00 79 1015.0
20260507051034 42 223 1.0 3.0 0.00 0.00 0.00 79 1014.9
20260507050535 42 127 0.0 3.0 0.00 0.00 0.00 79 1014.9
20260507050107 42 0 0.0 3.0 0.00 0.00 0.00 79 1014.9
20260507045534 42 195 1.0 4.0 0.00 0.00 0.00 79 1014.7
20260507045034 42 178 1.0 5.0 0.00 0.00 0.00 79 1014.9
20260507044553 42 89 1.0 5.0 0.00 0.00 0.00 79 1014.8
20260507044033 42 178 1.0 5.0 0.00 0.00 0.00 79 1014.7
20260507043533 42 197 1.0 6.0 0.00 0.00 0.00 79 1014.6
20260507043045 42 142 1.0 6.0 0.00 0.00 0.00 79 1014.6
20260507042536 42 159 2.0 6.0 0.00 0.00 0.00 79 1014.6
20260507042033 42 128 1.0 7.0 0.00 0.00 0.00 79 1014.6
20260507041548 42 254 2.0 8.0 0.00 0.00 0.00 79 1014.5
20260507041033 42 206 2.0 8.0 0.00 0.00 0.00 79 1014.5
20260507040535 42 126 2.0 8.0 0.00 0.00 0.00 79 1014.5
20260507040050 42 89 2.0 8.0 0.00 0.00 0.00 79 1014.5
20260507035535 42 108 2.0 7.0 0.00 0.00 0.00 78 1014.5
20260507035034 42 191 2.0 7.0 0.00 0.00 0.00 78 1014.5
20260507034547 42 135 2.0 7.0 0.00 0.00 0.00 78 1014.5
20260507034034 42 139 2.0 7.0 0.00 0.00 0.00 78 1014.5
20260507033534 42 165 2.0 7.0 0.00 0.00 0.00 78 1014.5
20260507033046 42 187 2.0 7.0 0.00 0.00 0.00 78 1014.6
20260507032533 42 165 2.0 8.0 0.00 0.00 0.00 78 1014.6
20260507032033 42 223 2.0 8.0 0.00 0.00 0.00 78 1014.7
20260507031543 42 0 2.0 8.0 0.00 0.00 0.00 78 1014.7
20260507031038 42 178 1.0 8.0 0.00 0.00 0.00 78 1014.8
20260507030533 42 143 2.0 8.0 0.00 0.00 0.00 78 1014.7
20260507030051 42 296 1.0 6.0 0.00 0.00 0.00 78 1014.9
20260507025533 42 56 1.0 6.0 0.00 0.00 0.00 78 1014.8
20260507025033 42 223 1.0 6.0 0.00 0.00 0.00 78 1014.9
20260507024549 42 296 1.0 6.0 0.00 0.00 0.00 78 1014.9
20260507024034 42 213 1.0 7.0 0.00 0.00 0.00 78 1014.9
20260507023534 42 23 2.0 7.0 0.00 0.00 0.00 78 1014.9
20260507023048 42 178 2.0 7.0 0.00 0.00 0.00 78 1014.9
20260507022534 42 159 2.0 7.0 0.00 0.00 0.00 78 1014.9
20260507022034 42 135 2.0 7.0 0.00 0.00 0.00 78 1015.0
20260507021559 42 203 1.0 6.0 0.00 0.00 0.00 78 1015.0
20260507021035 42 0 2.0 10.0 0.00 0.00 0.00 78 1014.9
20260507020534 42 231 2.0 10.0 0.00 0.00 0.00 78 1015.1
20260507020047 42 149 2.0 8.0 0.00 0.00 0.00 78 1015.0
20260507015536 42 89 2.0 8.0 0.00 0.00 0.00 78 1015.0
20260507015034 42 135 2.0 8.0 0.00 0.00 0.00 78 1015.0
20260507014551 42 206 2.0 7.0 0.00 0.00 0.00 78 1015.0
20260507014036 42 110 2.0 7.0 0.00 0.00 0.00 77 1015.1
20260507013534 42 197 2.0 11.0 0.00 0.00 0.00 77 1015.1
20260507013050 42 143 2.0 11.0 0.00 0.00 0.00 77 1015.1
20260507012535 42 189 2.0 8.0 0.00 0.00 0.00 77 1015.2
20260507012034 42 181 2.0 7.0 0.00 0.00 0.00 78 1015.1
20260507011550 42 159 2.0 7.0 0.00 0.00 0.00 78 1015.1
20260507011033 42 233 2.0 7.0 0.00 0.00 0.00 78 1015.2
20260507010533 42 206 2.0 8.0 0.00 0.00 0.00 78 1015.2
20260507010047 42 182 2.0 8.0 0.00 0.00 0.00 78 1015.2
20260507005535 42 117 2.0 9.0 0.00 0.00 0.00 79 1015.3
20260507005037 42 148 3.0 12.0 0.00 0.00 0.00 79 1015.2
20260507004550 42 181 3.0 12.0 0.00 0.00 0.00 79 1015.4
20260507004035 41 174 3.0 12.0 0.00 0.00 0.00 79 1015.2
20260507003534 41 186 2.0 6.0 0.00 0.00 0.00 79 1015.2
20260507003047 41 142 3.0 7.0 0.00 0.00 0.00 79 1015.3
20260507002534 41 178 3.0 7.0 0.00 0.00 0.00 80 1015.4
20260507002034 41 161 2.0 6.0 0.00 0.00 0.00 80 1015.4
20260507001543 41 159 1.0 4.0 0.00 0.00 0.00 80 1015.3
20260507001033 41 203 1.0 5.0 0.00 0.00 0.00 81 1015.3
20260507000536 40 269 1.0 6.0 0.00 0.00 0.00 81 1015.4
20260507000054 40 117 1.0 6.0 0.00 0.00 0.00 81 1015.4
20260506235534 40 193 1.0 6.0 0.00 0.00 0.00 81 1015.4
20260506235033 40 199 2.0 5.0 0.00 0.00 0.00 81 1015.5
20260506234555 40 46 1.0 6.0 0.00 0.00 0.00 80 1015.5
20260506234034 40 269 1.0 6.0 0.00 0.00 0.00 80 1015.4
20260506233534 40 168 1.0 4.0 0.00 0.00 0.00 80 1015.4
20260506233049 40 122 1.0 4.0 0.00 0.00 0.00 80 1015.4
20260506232533 40 148 1.0 4.0 0.00 0.00 0.00 79 1015.5
20260506232033 40 145 1.0 5.0 0.00 0.00 0.00 79 1015.5
20260506231547 40 213 1.0 5.0 0.00 0.00 0.00 79 1015.5
20260506231034 40 218 1.0 5.0 0.00 0.00 0.00 79 1015.5
20260506230533 40 178 2.0 5.0 0.00 0.00 0.00 78 1015.5
20260506230048 41 89 2.0 5.0 0.00 0.00 0.00 78 1015.5
20260506225534 41 89 1.0 5.0 0.00 0.00 0.00 78 1015.5
20260506225035 41 157 1.0 7.0 0.00 0.00 0.00 78 1015.6
20260506224546 41 0 2.0 7.0 0.00 0.00 0.00 78 1015.6
20260506224033 41 188 3.0 9.0 0.00 0.00 0.00 78 1015.7
20260506223533 41 201 3.0 9.0 0.00 0.00 0.00 78 1015.6
20260506223050 41 185 4.0 9.0 0.00 0.00 0.00 77 1015.7
20260506222534 41 187 4.0 10.0 0.00 0.00 0.00 77 1015.9
20260506222036 41 178 4.0 10.0 0.00 0.00 0.00 77 1015.8
20260506221551 41 169 3.0 8.0 0.00 0.00 0.00 76 1015.8
20260506221033 41 201 4.0 8.0 0.00 0.00 0.00 76 1015.9
20260506220536 41 182 3.0 8.0 0.00 0.00 0.00 75 1015.9
20260506220048 41 181 3.0 8.0 0.00 0.00 0.00 75 1015.8
20260506215533 41 200 2.0 7.0 0.00 0.00 0.00 74 1015.9
20260506215034 42 171 2.0 6.0 0.00 0.00 0.00 73 1015.9
20260506214547 42 165 1.0 6.0 0.00 0.00 0.00 72 1015.9
20260506214034 42 193 1.0 6.0 0.00 0.00 0.00 72 1015.9
20260506213538 42 135 0.0 2.0 0.00 0.00 0.00 72 1015.9
20260506213045 43 178 0.0 2.0 0.00 0.00 0.00 72 1015.9